Tracking 31027 objects as of 19-Jul-2025
HD Live streaming from Space Station
objects crossing your sky now

XTAR-EUR

Track XTAR-EUR now!
XTAR-EUR is classified as:


NORAD ID: 28542
Int'l Code: 2005-005A
Perigee: 35,773.8 km
Apogee: 35,813.2 km
Inclination: 3.5 °
Period: 1,436.1 minutes
Semi major axis: 42164 km
RCS: 6.3095 m2 (large)
Launch date: February 12, 2005
Source: United States (US)
Launch site: FRENCH GUIANA (FRGUI)

X-band; designed to be compatible with U.S. and NATO SATCOM systems.
Your satellite tracking list
Your tracking list is empty




NASA's NSSDC Master Catalog

Two Line Element Set (TLE):
1 28542U 05005A   25198.32338085  .00000156  00000-0  00000-0 0  9990
2 28542   3.4673  80.9063 0004679  29.7946 330.1109  1.00272634 74839
Source of the keplerian elements: AFSPC